SCP
3 3 3 2 2 2 2 3 3 2 2 2 3 3 3 3 3 3 4 3 2 1 1 1 1 1 1 1 1 1 1 1 1 1 1 1 1 1
3 3 3 2 2 2 3 3 3 3 3 3 3 3 3 2 2 3 4 3 2 1 1 1 1 1 1 1 1 1 1 1 1 1 1 1 1 1
3 3 3 3 3 3 4 4 3 3 3 3 4 4 4 3 2 3 3 3 2 1 1 1 1 1 1 1 1 0 0 0 0 1 1 1 1 1
4 4 4 4 4 5 5 4 4 4 4 4 4 5 5 4 3 3 2 2 2 1 1 1 1 1 1 1 0 0 0 0 0 0 0 0 1 1
5 5 6 7 7 6 6 5 4 4 4 4 5 5 5 4 3 2 2 2 2 1 1 1 1 1 1 1 0 0 0 0 0 0 0 0 0 0
6 6 7 8 9 8 7 5 4 4 5 5 5 5 5 4 3 2 2 2 2 1 1 1 1 1 1 1 1 0 0 0 0 0 0 0 0 0
6 6 7 8 9 8 6 5 4 4 4 4 4 4 5 5 4 3 2 2 2 1 1 1 1 1 1 1 1 0 0 0 0 0 0 0 0 0
6 6 6 6 7 6 5 4 4 3 3 4 4 4 4 5 4 3 3 2 2 2 1 1 1 1 1 1 0 0 0 0 0 0 0 0 0 0
6 6 5 5 5 5 4 3 3 2 2 3 3 3 4 4 3 3 3 3 2 2 2 1 2 1 1 1 1 0 0 0 0 0 0 0 0 0
5 5 5 5 5 4 3 2 2 2 2 2 2 2 2 2 2 3 3 3 3 3 2 2 2 2 2 2 1 0 0 0 0 0 0 0 0 0
5 4 4 5 4 3 2 2 2 2 2 1 1 1 1 1 1 2 3 3 3 3 3 3 2 2 2 2 1 0 0 0 0 0 0 0 0 0
5 4 4 3 2 1 2 3 3 2 1 1 1 1 1 1 1 2 2 3 3 3 4 3 3 2 2 2 1 1 0 0 0 0 0 0 0 0
5 4 3 2 1 1 1 2 2 2 1 1 2 2 2 2 2 2 3 3 3 3 4 4 3 2 2 2 1 1 1 0 0 0 0 0 0 0
4 4 2 1 0 0 1 1 1 1 1 1 2 2 2 2 2 3 3 3 3 3 3 3 3 3 2 2 1 1 1 1 1 0 0 0 0 0
3 2 1 1 0 0 0 1 1 1 1 1 1 1 2 2 2 3 3 3 2 2 2 2 2 2 2 2 1 1 2 2 2 1 1 1 0 0
2 1 1 1 1 1 1 1 1 1 1 1 1 1 2 2 3 3 3 3 3 2 2 1 1 2 2 2 2 2 2 2 2 2 2 2 1 1
2 2 2 2 1 2 2 1 1 1 1 1 1 2 2 3 3 2 3 4 3 2 2 2 2 2 2 3 2 2 2 2 2 2 3 2 2 1
2 3 3 2 2 2 2 1 1 2 2 2 2 2 2 3 2 2 3 3 3 3 3 3 3 3 3 3 2 2 2 1 2 2 2 2 2 2
1 2 2 2 2 2 2 2 2 3 3 3 2 2 2 2 2 2 2 2 2 3 3 4 4 4 3 3 2 2 2 2 2 2 2 2 2 1
1 1 1 2 2 2 2 3 3 4 4 3 3 2 2 2 2 2 2 2 2 2 3 3 3 3 3 2 2 1 1 1 2 2 2 2 1 1
2 2 2 2 3 3 3 3 3 4 4 3 3 2 2 2 2 2 2 2 2 2 2 2 2 2 2 2 2 1 1 1 1 1 1 1 1 1
2 2 3 3 3 3 2 3 3 3 3 2 2 2 2 2 2 2 2 2 2 3 3 3 3 2 2 2 1 1 1 1 1 1 1 1 1 1
2 2 3 3 2 2 2 3 3 3 2 2 2 1 1 2 2 2 2 2 3 3 3 3 3 2 2 2 1 1 1 1 1 1 0 0 0 0
Wind_Speed
4 4 4 4 4 3 3 3 3 4 4 3 2 2 2 2 5 4 4 7 10 9 9 9 9 8 8 8 7 8 8 8 7 7 7 7 7 7
3 4 4 3 3 3 2 3 3 3 4 2 2 2 2 3 4 3 4 7 9 10 10 10 10 9 9 9 8 8 8 7 7 7 7 7 7 7
3 3 4 4 3 3 2 2 3 2 4 3 2 2 2 2 2 3 4 5 5 10 11 11 10 10 9 9 9 8 8 7 7 7 7 7 6 6
3 3 4 4 4 4 2 3 3 3 3 4 3 2 3 3 3 4 5 5 4 8 11 12 11 11 10 9 9 8 8 7 7 7 7 7 7 7
3 3 4 4 4 3 4 3 3 3 3 4 4 3 2 2 3 4 5 3 4 5 8 10 11 11 10 9 9 8 8 7 7 7 7 6 6 7
3 3 3 4 4 4 4 4 3 3 3 3 4 3 2 2 2 2 3 2 3 3 3 4 7 9 9 9 9 9 8 8 8 7 7 7 7 6
3 3 3 3 3 3 3 2 3 3 3 3 3 2 2 1 2 2 3 3 3 2 1 2 3 3 5 7 8 9 9 9 8 8 8 7 7 6
3 3 4 4 4 4 4 4 4 4 3 3 3 3 2 3 2 3 3 2 2 2 2 3 3 3 3 3 7 9 9 9 9 9 9 8 8 7
4 4 5 3 1 1 2 4 4 5 4 3 3 3 3 2 3 4 3 3 4 3 2 3 2 2 2 2 7 8 9 8 9 9 9 8 8 8
4 5 4 2 2 1 2 3 3 3 4 4 3 3 3 3 3 4 4 4 3 2 1 2 2 2 2 1 5 8 8 7 8 8 8 8 8 8
4 4 4 3 2 1 2 3 3 3 2 2 3 3 4 4 3 2 2 2 3 2 1 1 2 2 2 1 2 6 7 7 7 7 7 7 7 6
3 3 3 2 3 2 2 3 3 3 3 3 3 4 4 4 4 3 3 2 2 2 0 1 1 1 2 1 0 1 2 4 5 5 6 7 7 4
2 1 1 3 4 3 3 3 3 3 3 4 3 3 3 3 3 3 3 2 2 2 1 0 1 1 1 2 1 1 1 2 2 3 4 5 5 5
3 2 1 3 4 4 3 3 3 3 3 3 3 2 2 2 2 3 3 3 3 3 2 1 1 1 1 2 2 1 1 1 2 2 2 3 4 6
2 2 1 3 4 4 5 4 3 2 3 3 3 2 2 2 2 2 2 2 2 2 2 2 2 1 1 2 2 2 2 2 2 2 2 2 3 3
2 2 2 3 3 3 3 3 3 3 3 3 2 2 2 1 1 1 1 1 1 2 2 2 3 3 2 3 2 2 2 2 2 2 2 2 2 2
1 1 1 1 2 2 2 2 2 2 3 3 2 2 2 1 1 1 1 1 2 2 2 1 1 2 3 3 2 2 2 2 2 1 1 2 2 2
0 1 1 1 2 2 2 2 2 2 2 2 2 2 2 2 2 2 1 2 2 2 2 1 1 1 1 2 2 2 2 2 2 2 1 1 2 2
0 1 1 1 2 2 2 2 2 2 1 1 1 1 1 2 2 2 1 1 1 1 1 1 1 1 2 2 2 1 2 3 2 2 2 2 2 3
1 1 1 1 2 2 2 2 2 2 1 1 1 1 1 1 1 1 1 1 1 1 1 1 1 1 2 3 2 3 3 3 2 2 2 2 2 2
1 1 1 2 2 2 2 2 2 2 2 1 1 0 1 1 1 1 1 1 1 1 1 2 2 2 2 1 1 2 2 2 3 3 2 2 2 2
1 1 1 1 1 1 2 2 2 2 2 1 1 1 1 1 1 1 1 1 1 1 2 2 2 1 1 1 2 3 3 2 2 2 2 3 2 2
1 1 1 1 1 1 1 2 2 2 2 2 2 1 1 2 1 1 1 1 1 1 1 2 2 2 2 1 2 2 3 3 2 2 2 2 3 4
Wind_Direction
238 243 246 258 257 252 240 223 227 245 250 237 230 223 204 185 186 191 192 195 201 209 215 218 221 224 228 231 235 239 244 246 249 253 256 254 254 253
226 229 236 254 260 255 240 238 239 241 251 245 237 229 220 230 207 204 207 207 209 211 216 218 220 223 226 228 232 235 239 242 247 250 251 249 246 248
241 232 234 240 255 261 251 240 241 239 252 266 259 258 247 235 223 231 228 213 214 215 216 217 219 222 225 227 229 232 236 239 244 247 246 243 242 244
248 247 250 247 248 258 261 256 249 237 244 262 262 260 251 238 229 238 245 231 224 217 217 218 219 221 223 225 227 228 229 234 238 243 245 244 242 243
251 245 251 255 256 255 253 258 260 259 241 248 256 246 245 241 244 254 256 247 250 226 218 222 223 223 223 222 224 224 224 228 234 239 241 245 248 248
259 255 255 253 252 257 255 256 261 267 259 256 258 258 241 236 232 258 269 258 258 259 234 229 223 222 224 220 219 219 220 223 227 232 235 238 241 242
265 261 260 252 248 252 258 262 262 258 259 258 261 268 262 259 248 259 266 268 263 247 248 251 223 217 221 223 218 216 217 220 223 227 229 232 233 235
269 266 261 247 234 234 241 244 249 248 252 257 262 261 266 261 255 259 263 272 268 238 248 258 228 219 220 213 209 211 214 218 221 223 225 225 225 227
259 260 268 262 251 241 236 236 250 256 250 249 260 266 268 269 264 262 256 257 260 255 243 258 239 237 243 222 196 200 208 215 219 221 224 225 225 226
258 253 250 240 249 288 277 259 254 254 249 246 248 260 273 271 258 254 255 256 262 256 213 253 267 270 281 240 198 194 199 210 220 223 223 225 230 234
253 249 236 222 197 225 250 263 269 273 265 257 251 245 250 257 266 277 276 267 273 256 192 243 280 296 276 237 216 202 209 217 222 224 225 226 231 236
245 234 231 195 188 216 231 249 258 267 277 276 260 250 246 245 237 226 240 257 277 274 209 225 273 306 299 287 160 214 214 220 224 226 229 233 230 225
273 244 212 175 187 211 241 252 257 272 269 259 253 246 237 228 220 209 212 217 245 262 276 225 276 276 256 288 299 242 210 206 207 216 227 236 230 219
286 288 251 211 213 219 230 258 263 277 268 261 256 251 246 238 224 215 210 213 216 233 250 214 245 266 271 284 292 291 273 239 207 208 214 222 239 242
299 298 254 229 227 228 240 247 249 253 253 253 255 258 252 240 218 215 212 216 234 258 253 203 203 233 246 260 271 281 279 263 220 215 212 222 227 226
309 307 244 216 229 248 239 232 239 251 257 254 251 250 255 256 217 191 200 219 243 266 256 224 211 211 239 253 257 272 269 254 255 234 222 231 237 228
304 261 263 248 238 243 250 254 248 247 250 259 263 265 259 255 254 235 216 217 219 247 268 246 221 230 247 251 256 265 277 281 272 266 243 255 249 241
42 268 284 284 279 263 254 259 257 253 256 249 250 251 251 251 254 250 237 226 232 240 251 248 208 228 280 302 249 255 286 288 285 267 249 267 278 274
57 291 283 279 286 297 293 280 273 258 241 246 250 259 263 261 258 256 246 245 244 251 267 273 256 236 268 284 292 256 256 271 275 275 261 255 262 276
293 301 314 315 308 303 318 332 328 337 338 306 268 260 267 267 264 275 270 256 256 261 297 311 310 298 265 263 269 287 258 245 252 261 274 276 266 269
279 284 296 310 327 336 347 346 343 349 341 323 318 315 308 304 300 289 281 291 270 280 289 290 287 279 261 264 264 275 279 250 243 246 254 266 281 289
272 298 329 345 348 346 338 337 337 332 326 329 344 360 333 303 283 282 299 297 280 272 279 283 292 297 283 268 269 278 283 291 281 265 245 230 239 254
16 2 357 344 343 341 346 332 329 336 351 359 4 1 336 314 292 286 290 298 305 316 327 330 333 320 302 279 275 281 294 295 295 293 285 272 242 246